Adak, AK (99546)

9:37 PM HST on February 10, 2016 (GMT -1000)
Adak | | Change Station
CLOSE
Current Station
Airport
Location: Adak,
Elevation: 13 ft
Nearby Weather Stations

Elev 13 ft 51.88 °N, 176.65 °W | Updated 1 minute ago

Overcast
Overcast
34 °F
Feels Like 34 °F
N
0
Wind Variable Wind from North

Today
High -- | Low -- °F
--% Chance of Precip.
Yesterday
High -- | Low -- °F
Precip. -- in
Pressure 29.43 in
Visibility 10.0 miles
Clouds Overcast 900 ft
Dew Point 28 °F
Humidity 81%
Rainfall 2.03 in
Snow Depth Not available.
9:11 AM 6:51 PM
Waxing Crescent, 10% visible
METAR PADK 110736Z 00000KT 10SM OVC009 01/M02 A2943 RMK AO1 P0010
Pressure 29.43 in
Visibility 10.0 miles
Clouds Overcast 900 ft
Dew Point 28 °F
Humidity 81%
Rainfall 2.03 in
Snow Depth Not available.
9:11 AM 6:51 PM
Waxing Crescent, 10% visible
METAR PADK 110736Z 00000KT 10SM OVC009 01/M02 A2943 RMK AO1 P0010

10-Day Weather Forecast

Almanac

Astronomy

Feb. 10, 2016 Rise Set
Actual Time
Civil Twilight
Nautical Twilight
Astronomical Twilight
Moon
Length of Visible Light
Length of Day
Tomorrow will be .
, % of the Moon is Illuminated

Today's Extremes

State Highs State Lows

Community

WunderPhotos

Upload Photos

1,892,030 photos uploaded!

WunderBlog® & News

Nearby

Air Quality

  Air Quality AQ Index Pollutant
Not available.

Snow Depth

Station Depth Elevation

Earthquake Activity

City Distance Mag. Time & Date
Minimum magnitude displayed is 2.5.

Coastal Water Temperatures

Place Temperature

Stations

Nearby Weather Stations

Station Location Temp. Windchill Dew Point Humidity Wind Precip. Elev Updated Type
                   

Watches & Warnings

There are currently no watches in effect.